Regional Weather Roundup
Issued by NWS

Home | Current Version | Previous Version | Graphics & Text | Print | Product List | Glossary On
Versions: 1 2 3 4 5 6 7 8 9 10 11 12 13 14 15 16 17 18 19 20 21 22 23 24 25 26 27 28 29 30 31 32 33 34 35 36 37 38 39 40 41 42 43 44 45 46 47 48 49 50
000
ASUS43 KIND 231009
RWRIN

WEATHER ROUNDUP FOR INDIANA
NATIONAL WEATHER SERVICE INDIANAPOLIS IN
600 AM EDT TUE SEP 23 2014

NOTE: "FAIR" INDICATES FEW OR NO CLOUDS BELOW 12,000 FEET WITH NO
SIGNIFICANT WEATHER AND/OR OBSTRUCTIONS TO VISIBILITY.

* - STATION DOES NOT REPORT WEATHER SUCH AS PRECIPITATION OR FOG.

+ - STATION NOT QUALITY CONTROLLED BY THE NATIONAL WEATHER SERVICE.
    USE DATA WITH CAUTION...ESPECIALLY DEWPOINT AND RELATIVE
    HUMIDITY OBSERVATIONS.

INZ001>003-010>013-019-020-231100-
NORTHWEST INDIANA

CITY           SKY/WX    TMP DP  RH WIND       PRES   REMARKS
GARY /AIRPORT/ CLEAR     45  43  93 S3        30.30S
KNOX *+        CLEAR     41  39  94 CALM      30.30R
LA PORTE +     CLEAR     41  41 100 CALM      30.31R
MICHIGAN CITY+ CLEAR     43  43 100 CALM      30.30S
MONTICELLO +   CLEAR     42  42  99 CALM      30.30R
RENSSELAER +   CLEAR     41  41 100 CALM      30.31R
VALPARAISO     PTCLDY    43  41  93 CALM      30.31R

$$

LMZ046-743>745-231100-
SOUTHERN LAKE MICHIGAN

STATION/POSITION TIME  TEMP WIND        PRES
                       AIR  DIR/SP/G
                 (UTC) (F)  (DEG/KT/KT) (MB)

$$

INZ004-005-014>016-021>024-231100-
NORTH CENTRAL INDIANA

CITY           SKY/WX    TMP DP  RH WIND       PRES   REMARKS
GOSHEN         CLEAR    N/A N/A N/A CALM      30.30S HAZE
LOGANSPORT +   FOG       41  41 100 CALM      30.31S VSB 1/2
PERU/GRISSOM   CLEAR     45  45 100 SE5       30.30R
ROCHESTER +    CLEAR     45  45 100 CALM      30.31R
SOUTH BEND     CLEAR     45  41  86 CALM      30.31R
WARSAW +       CLEAR     41  41 100 CALM      30.31R

$$

INZ006>009-017-018-025>027-231100-
NORTHEAST INDIANA

CITY           SKY/WX    TMP DP  RH WIND       PRES   REMARKS
ANGOLA *+      CLOUDY    41  39  93 CALM      30.31R VSB 1/4
AUBURN +       CLEAR     43  41  93 CALM      30.31S
FORT WAYNE     CLEAR     44  42  93 CALM      30.31S
HUNTINGTON +   FOG       42  42  99 CALM      30.31R VSB 1/2

$$

INZ028-029-035-036-043>045-051>053-231100-
WEST CENTRAL INDIANA

CITY           SKY/WX    TMP DP  RH WIND       PRES   REMARKS
GREENCASTLE +  CLEAR     45  43  93 CALM      30.30F
LAFAYETTE      CLEAR     44  43  96 CALM      30.31R
TERRE HAUTE    CLEAR     42  41  96 NW3       30.31R

$$

INZ030>032-037>040-046>048-054>057-064-065-231100-
CENTRAL INDIANA

CITY           SKY/WX    TMP DP  RH WIND       PRES   REMARKS
CP ATTERBURY + CLEAR     41  39  93 CALM      30.31S
FRANKFORT +    CLEAR    N/A N/A N/A CALM      30.31S
GREENWOOD *+   CLEAR     45  43  93 CALM      30.30S
INDIANAPOLIS   CLEAR     49  44  83 NE6       30.29S
-EAGLE CREEK   CLEAR     48  43  82 CALM      30.30S
KOKOMO *+      CLEAR     43  39  87 CALM      30.31S
MARION +       CLEAR     41  40  99 CALM      30.31S
MT COMFORT *+  CLEAR     41 N/A N/A CALM      30.31R
SHELBYVILLE    CLEAR     44  40  85 CALM      30.30R
ZIONSVILLE +   CLEAR     42  39  90 CALM      30.31S

$$

INZ033-034-041-042-049-050-058-059-231100-
EAST CENTRAL INDIANA

CITY           SKY/WX    TMP DP  RH WIND       PRES   REMARKS
MUNCIE         CLEAR     42  39  89 CALM      30.31R

$$

INZ060-061-067>069-081>083-085>088-231100-
SOUTHWEST INDIANA

CITY           SKY/WX    TMP DP  RH WIND       PRES   REMARKS
EVANSVILLE     CLEAR     48  45  89 CALM      30.29R
WASHINGTON +   FOG       41  41 100 CALM      30.29R VSB 1/4

$$

INZ062-063-066-070>080-084-089>092-231100-
SOUTH CENTRAL AND SOUTHEAST INDIANA

CITY           SKY/WX    TMP DP  RH WIND       PRES   REMARKS
BLOOMINGTON    CLEAR     42  40  92 CALM      30.29S FOG
NORTH VERNON + CLEAR     41  41 100 CALM      30.31

$$



USA.gov is the U.S. government's official web portal to all federal, state and local government web resources and services.